Regional Weather Roundup
Issued by NWS Wakefield, VA

Home | Current Version | Previous Version | Graphics & Text | Print | Product List | Glossary On
Versions: 1 2 3 4 5 6 7 8 9 10 11 12 13 14 15 16 17 18 19 20 21 22 23 24 25 26 27 28 29 30 31 32 33 34 35 36 37 38 39 40 41 42 43 44 45 46 47 48 49 50
000
ASUS41 KAKQ 280114
RWRAKQ

REGIONAL WEATHER ROUNDUP
NATIONAL WEATHER SERVICE WAKEFIELD VA
900 PM EDT FRI MAR 27 2015

Note: "fair" indicates few or no clouds below 12,000 feet with no
significant weather and/or obstructions to visibility. * = Denotes
station may not report precipitation (e.g., rain,snow,etc.),
thunder or fog.

VAZ042-051-052>054-056-280200-
NORTHERN VIRGINIA

CITY           SKY/WX    TMP DP  RH WIND       PRES   REMARKS
WASH NATIONAL  CLOUDY    49  29  46 N13       29.81S
DULLES         CLOUDY    44  25  47 NW12      29.82R
FORT BELVOIR   MOCLDY    46  26  45 NW6       29.81R
QUANTICO       MOCLDY    46  28  49 N7        29.82R
FREDERICKSBRG* MOCLDY    46  32  56 NW5       29.81R
STAFFORD*      MOCLDY    42  31  65 NW6       29.86R
WARRENTON      MOCLDY    46  33  62 NW12      29.82R
CULPEPER*      CLOUDY    46  27  46 N15       29.83R
MANASSAS*      PTCLDY    45  28  53 N13       29.82R
LEESBURG*      CLOUDY    43  30  61 N15G21    29.84R
WINCHESTER     CLOUDY    41  19  42 NW12G18   29.83S
FRONT ROYAL*   MOCLDY    41  27  56 NW10G20   29.83R
LURAY*         CLOUDY    43  27  52 N3        29.82R
$$

VAZ048-049-060>072-079>083-280200-
CENTRAL AND SOUTH CENTRAL VIRGINIA

CITY           SKY/WX    TMP DP  RH WIND       PRES   REMARKS
RICHMOND       CLOUDY    42  37  82 CALM      29.81R
CHESTERFIELD*  CLOUDY    41  28  60 E3        29.83R
PETERSBURG*    CLOUDY    42  40  95 CALM      29.82R FOG
HANOVER        CLOUDY    41  39  93 CALM      29.83R
TAPPAHANNOCK*  MOCLDY    41  37  86 CALM      29.82R
QUINTON*       CLOUDY    39  39 100 MISG      29.81R
CHARLOTTSVILLE CLOUDY    45  27  49 N9        29.81R
GORDONSVILLE*  CLOUDY    42  38  86 CALM      29.81R
ORANGE*        CLOUDY    45  32  61 NW9       29.83R
LOUISA*        CLOUDY    39  37  93 CALM      29.80R
BUMPASS*       CLOUDY    41  38  92 MISG      29.80R
FARMVILLE*     CLOUDY    42  42 100 CALM      29.80S
CREWE*         CLOUDY    40  38  93 MISG      29.81R
FORT PICKETT*  CLOUDY    39  38  98 CALM      29.81R
CHASE CITY*    CLOUDY    41  41 100 CALM      29.81S
CLARKSVILLE*   CLOUDY    37  37 100 CALM      29.80F
SOUTH HILL*    CLOUDY    38  36  91 CALM      29.86S
LAWRENCEVILLE* CLOUDY    39  38  97 CALM      29.81R
EMPORIA*       CLOUDY    37  37 100 W3        29.83R
$$

VAZ088>098-280200-
SOUTHEAST VIRGINIA

CITY           SKY/WX    TMP DP  RH WIND       PRES   REMARKS
NORFOLK        LGT RAIN  40  37  89 N10       29.80R FOG
VIRGINIA BEACH CLOUDY    42  38  85 N12       29.79S FOG
NORFOLK NAVAL  CLOUDY    44  37  76 N13       29.82S
WEST POINT*    CLOUDY    42  39  88 CALM      29.82S
SALUDA*        CLOUDY    39  36  89 CALM      29.80S
NEWPORT NEWS   NOT AVBL
LANGLEY AFB    CLOUDY    39  37  93 NE6       29.80S
FORT EUSTIS    CLOUDY    41  40  99 E6        29.78S
WILLIAMSBURG*  CLOUDY    43  41  93 CALM      29.81R
HR EXEC AP*    CLOUDY    39  37  93 N3        29.82R
FRANKLIN*      CLOUDY    40  38  94 N3        29.81S
WAKEFIELD      CLOUDY    40  37  89 CALM      29.81R
$$

VAZ020-022-025-037-045-280200-
WEST CENTRAL AND SOUTHWEST VIRGINIA

CITY           SKY/WX    TMP DP  RH WIND       PRES   REMARKS
STAUNTON*      CLOUDY    41  24  50 N7        29.84R
WAYNESBORO*    CLOUDY    39  25  58 N7        29.81R
HOT SPRINGS VA CLOUDY    28  20  70 NW12G21   29.73S WCI  18
LYNCHBURG      CLOUDY    41  39  93 S5        29.80R
DANVILLE       CLOUDY    43  40  89 CALM      29.81R
SOUTH BOSTON*  CLOUDY    40  38  95 CALM      29.81R
MARTINSVILLE   PTCLDY    40  36  84 NW3       29.83R
ROANOKE        PTCLDY    42  22  44 N13       29.83R
BLACKSBURG     CLOUDY    37  22  53 NW8       29.83R
DUBLIN*        CLOUDY    39  24  53 NW6       29.83R
MARION*        CLOUDY    37  23  55 NW8       29.84R
HILLSVILLE*    CLOUDY    37  23  57 NW14      29.79R
RICHLANDS*     LGT SNOW  31  28  86 NW8G17    29.85R
WISE*          LGT SNOW  32  30  93 NW6       29.89R
ABINGDON*      FLURRIES  37  32  80 N7        29.88R
$$

MDZ021>025-VAZ099-100-280200-
SOUTHERN MARYLAND AND THE DELMARVA PENINSULA

CITY           SKY/WX    TMP DP  RH WIND       PRES   REMARKS
PATUXENT RIVER CLOUDY    40  37  89 S3        29.81R
BAY BRIDGE APT   N/A     41  37  87 CALM      29.80S
LEONARDTOWN    CLOUDY    39  36  87 SW3       29.82R
DOVER          CLOUDY    40  37  86 NW3       29.79R
GEORGETOWN     CLOUDY    40  38  93 CALM      29.80R
EASTON         NOT AVBL
CAMBRIDGE      CLOUDY    41  37  87 CALM      29.80R
SALISBURY      CLOUDY    39  37  92 CALM      29.80R
OCEAN CITY     LGT RAIN  39  36  89 N6        29.79R
WALLOPS ISLAND LGT RAIN  39  36  89 N8        29.80R
ACCOMACK*      LGT RAIN  37  34  87 N5        29.80R
$$

NCZ012>017-030>032-280200-
NORTH CENTRAL AND EASTERN NORTH CAROLINA

CITY           SKY/WX    TMP DP  RH WIND       PRES   REMARKS
ROANOKE RAPIDS CLOUDY    41  36  81 N7        29.81R
RALEIGH        CLOUDY    41  38  89 NE3       29.81S
ELIZABETH CITY CLOUDY    41  37  87 N15       29.78S
AHOSKIE*       LGT RAIN  39  37  93 N3        29.81R
EDENTON*       CLOUDY    41  40  93 N9        29.79S
CURRITUCK*     DRIZZLE   41  38  89 N9        29.79S
KILL DEVIL HLS CLOUDY    40  39  96 N13G20    29.74R
MANTEO         CLOUDY    40  38  93 N17G23    29.75R
CAPE HATTERAS  LGT RAIN  43  39  86 N16G30    29.72R
TARBORO*       CLOUDY    42  38  85 N6        29.81S
GOLDSBORO      CLOUDY    43  43  99 N8        29.77F
WASHINGTON     CLOUDY    42  39  89 N8        29.79R
GREENVILLE     CLOUDY    43  39  87 N6        29.82S
NEW BERN       CLOUDY    44  40  85 N14       29.77S
WILMINGTON     CLOUDY    46  43  89 N9        29.76R
$$

VAZ048-280200-
ELSEWHERE

CITY           SKY/WX    TMP DP  RH WIND       PRES   REMARKS
HARRISBURG PA  CLOUDY    42  24  49 NW15      29.82R
BALTIMORE      CLOUDY    45  26  47 NW7       29.80R
ANNAPOLIS      CLOUDY    41  37  86 CALM      29.80R
ANDREWS AFB    MOCLDY    44  29  55 N9        29.79R
PHILADELPHIA   CLOUDY    45  25  45 N10       29.80R
HENDERSON NC   CLOUDY    39  37  90 CALM      29.81S
GREENSBORO     CLOUDY    45  36  70 CALM      29.79R
ROCKY MOUNT    CLOUDY    42  38  85 N8        29.81R
$$

VAZ100-280200-
MARINE

STATION/POSITION TIME  TEMP    WIND        PRES    WAVE   SWELL
                       AIR SEA DIR/SP/G            HT/PER HT/PER
                 (UTC) (F)     (DEG/KT/KT) (MB)    (FT/S) (FT/S)
BRANDYWINE LGT   0000   41 40  270/  5/  7 1008.5R
CAPE MAY NJ      0000   40 43  240/  4/  4 1008.2R
LEWES DE         0018   40 43  260/  2/  2 1008.2R
15NM E FENWICK I 0050   39 40              1007.9S   5/11
OCEAN-CITY-INLET 0000   40 40   10/ 10/ 12 1007.5F
WACHAPREAGUE VA  0000   38 49   10/  5/  7 1008.0F
THOMAS POINT MD  0100                        N/A
COVE POINT MD    0000   40     260/  2/  3 1008.5R
SOLOMONS ISLAND  0012      43                N/A
BISHOPS HEAD MD  0000   41 48  310/  5/  5 1008.1F
PINEY POINT MD   0012          220/  2/  2   N/A
CAMBRIDGE MD     0000   42 45  270/  1/  2 1008.5R
LEWISETTA VA     0000   40 47              1008.8R
RAPPAHANNOCK LGT 0000           10/ 11/ 12 1009.2R
STINGRAY PT      0100   40 45   30/  6/  8   N/A     1/ 3
YORK RVR RNG VA  0000   40      10/ 10/ 11 1008.3R
YORKTOWN VA      0000          330/  6/  8 1008.8R
DOMINION TERM VA 0000   40      10/  8/ 10 1009.1R
KIPTOPEKE VA     0000      49   10/  7/  9   N/A
CHES BAY BRIDGE  0006   40 45  340/ 16/ 17 1008.7
CAPE HENRY VA    0000   40     340/ 14/ 16 1007.6R
CHESAPEAKE LGHT  0000   40     360/ 14/ 15 1008.8R
WILLOUBY STN VA  0000   40     360/ 10/ 12 1009.7R
S CRANEY ISL VA  0000           10/ 12/ 14 1009.1R
CAPE HENRY BUOY  0028      41                N/A     5/10   2/11
1ST LANDING BUOY 0100   40      10/ 14/ 16 1008.7R   3/ 3
OFFSHORE WE BUOY 0011      41                N/A     6/10   5/10
64NM E OF VA BCH 0050   44 53  350/ 21/ 25 1006.0R   9/ 9   5/ 9
DUCK PIER NC     0000   41 41  350/ 16/ 19 1006.9R
44056 DUCK FRF   0011      41                N/A     6/ 7   2/11
OREGON INLET NC  0000   40 51  350/ 15/ 20 1006.4R
HATTERAS NC      0006   45 57   20/ 21/ 26 1006.1
CAPE LOOKOUT NC  0100   45      10/ 19/ 26 1006.1R
$$



USA.gov is the U.S. government's official web portal to all federal, state and local government web resources and services.